(348491) = 1995 UP69 = 2005 SN230

Discovered at Mount Lemmon on 2005-09-30 by Mt. Lemmon Survey.

Orbit

Orbit type: Main Belt

Note: WebGL enabled browser required.

epoch2024-03-31.0
epoch JD2460400.5
perihelion date2022-04-13.37145
perihelion JD2459682.87145
argument of perihelion (°)322.41096
ascending node (°)4.45307
inclination (°)4.30968
eccentricity0.0693546
perihelion distance (AU)2.0957218
Tisserand w.r.t. Jupiter3.6
ΔV w.r.t. Earth (km/sec)9.0
semimajor axis (AU)2.2519015
mean anomaly (°)209.30493
mean daily motion (°/day)0.29166190
aphelion distance (AU)2.408
period (years)3.38
P-vector [x]0.83724184
P-vector [y]-0.48170961
P-vector [z]-0.25880873
Q-vector [x]0.54680167
Q-vector [y]0.74254128
Q-vector [z]0.38683379
absolute magnitude18.11
phase slope0.15
uncertainty0
referenceMPEC 2024-E179
observations used201
oppositions12
arc length (days)10371
first opposition used1995
last opposition used2024
residual rms (arc-secs)0.69
perturbers coarse indicatorM-v
perturbers precise indicator003Ek
first observation date used1995-10-19.0
last observation date used2024-03-11.0
computer nameMPCLINUX
JD of orbit computation2456789.286982
perihelion JD uncertainty (days)2.4562E-04
argument of perihelion uncertainty (°)8.7225E-05
ascending node uncertainty (°)5.4730E-05
inclination uncertainty (°)7.9411E-06
eccentricity uncertainty 6.4551E-08
perihelion distance uncertainty (AU)1.4540E-07
Minimum Orbit Intersection Distances (in AU)
for orbit epoch: 2460400.5, reference: E2024-E73
Mercury1.67012
Venus1.36772
Earth1.08606
Mars0.70793
Jupiter2.7799
Saturn6.70436
Uranus16.0382
Neptune27.6208

Observations

211 total observations over interval: 1995 10 19.29448 – 2024 03 11.287339
These data are available for download (format description).

Date (UT) J2000 RA J2000 Dec Magn Location Ref
1995 10 19.29448 02 23 54.66 +18 14 25.4   691 – Steward Observatory, Kitt Peak-Spacewatch MPS 32169
1995 10 19.31634 02 23 53.27 +18 14 28.2 20.6 V 691 – Steward Observatory, Kitt Peak-Spacewatch MPS 32169
1995 10 19.33833 02 23 51.82 +18 14 24.7   691 – Steward Observatory, Kitt Peak-Spacewatch MPS 32169
1995 10 24.36020 02 18 27.77 +18 01 26.1   691 – Steward Observatory, Kitt Peak-Spacewatch MPS 224911
1995 10 24.38319 02 18 26.20 +18 01 21.6 20.8 V 691 – Steward Observatory, Kitt Peak-Spacewatch MPS 224911
1995 10 24.40534 02 18 24.70 +18 01 17.6   691 – Steward Observatory, Kitt Peak-Spacewatch MPS 224911
1995 11 17.28941 01 54 04.79 +16 36 32.1 21.0 V 691 – Steward Observatory, Kitt Peak-Spacewatch MPS 224911
1995 11 17.31107 01 54 03.75 +16 36 29.8   691 – Steward Observatory, Kitt Peak-Spacewatch MPS 224911
1995 11 17.33278 01 54 02.61 +16 36 22.6   691 – Steward Observatory, Kitt Peak-Spacewatch MPS 224911
2004 04 19.22596 13 14 15.07 -10 39 52.7 21.2 V 691 – Steward Observatory, Kitt Peak-Spacewatch MPS 224911
2004 04 19.25299 13 14 13.36 -10 39 46.2 20.9 V 691 – Steward Observatory, Kitt Peak-Spacewatch MPS 224911
2004 04 19.28001 13 14 11.65 -10 39 39.4 21.4 V 691 – Steward Observatory, Kitt Peak-Spacewatch MPS 224911
2005 09 30.28105 00 52 40.08 +06 38 06.6 20.5 V G96 – Mt. Lemmon Survey MPS 144419
2005 09 30.28710 00 52 39.68 +06 38 05.5 20.6 V G96 – Mt. Lemmon Survey MPS 144419
2005 09 30.29317 00 52 39.28 +06 38 04.2 20.4 V G96 – Mt. Lemmon Survey MPS 144419
2005 09 30.29924 00 52 38.92 +06 38 03.1 20.5 V G96 – Mt. Lemmon Survey MPS 144419
2005 10 02.43986 00 50 26.12 +06 30 36.9 20.1 V G96 – Mt. Lemmon Survey MPS 175444
2005 10 02.44437 00 50 25.80 +06 30 35.6 20.1 V G96 – Mt. Lemmon Survey MPS 175444
2005 10 02.44888 00 50 25.51 +06 30 34.8 20.1 V G96 – Mt. Lemmon Survey MPS 175444
2005 10 02.45337 00 50 25.22 +06 30 33.8 20.0 V G96 – Mt. Lemmon Survey MPS 175444
2005 10 05.22437 00 47 32.87 +06 20 37.0 20.2 V 691 – Steward Observatory, Kitt Peak-Spacewatch MPS 144419
2005 10 05.24162 00 47 31.74 +06 20 33.0 20.3 V 691 – Steward Observatory, Kitt Peak-Spacewatch MPS 144419
2005 10 05.25898 00 47 30.60 +06 20 29.3 20.4 V 691 – Steward Observatory, Kitt Peak-Spacewatch MPS 144419
2005 10 10.18732 00 42 25.26 +06 02 25.3 20.6 V 691 – Steward Observatory, Kitt Peak-Spacewatch MPS 146219
2005 10 10.20463 00 42 24.19 +06 02 21.5 20.2 V 691 – Steward Observatory, Kitt Peak-Spacewatch MPS 146219
2005 10 10.22188 00 42 23.07 +06 02 17.4 20.8 V 691 – Steward Observatory, Kitt Peak-Spacewatch MPS 146219
2005 11 05.07911 00 22 23.25 +04 52 46.4 21.5 V 691 – Steward Observatory, Kitt Peak-Spacewatch MPS 149653
2005 11 05.09705 00 22 22.73 +04 52 45.1 21.4 V 691 – Steward Observatory, Kitt Peak-Spacewatch MPS 149653
2005 11 05.11499 00 22 22.22 +04 52 44.2 21.2 V 691 – Steward Observatory, Kitt Peak-Spacewatch MPS 149653
2007 02 25.28299 10 26 39.80 +13 41 49.7 20.9 V G96 – Mt. Lemmon Survey MPS 224911
2007 02 25.28859 10 26 39.37 +13 41 51.1 21.0 V G96 – Mt. Lemmon Survey MPS 224911
2007 02 25.29415 10 26 39.01 +13 41 52.1 21.2 V G96 – Mt. Lemmon Survey MPS 224911
2007 02 25.29974 10 26 38.61 +13 41 53.6 20.6 V G96 – Mt. Lemmon Survey MPS 224911
2007 02 25.34943 10 26 35.30 +13 42 06.7 21.2 V G96 – Mt. Lemmon Survey MPS 224911
2007 02 25.35743 10 26 34.76 +13 42 08.4 21.3 V G96 – Mt. Lemmon Survey MPS 224911
2007 02 25.36543 10 26 34.22 +13 42 10.7 20.9 V G96 – Mt. Lemmon Survey MPS 224911
2007 02 25.37344 10 26 33.75 +13 42 12.9 20.3 V G96 – Mt. Lemmon Survey MPS 224911
2011 06 09.22583 15 14 28.14 -24 48 10.5 20.9 V G96 – Mt. Lemmon Survey MPS 384665
2011 06 09.23403 15 14 27.78 -24 48 08.8 20.8 V G96 – Mt. Lemmon Survey MPS 384665
2011 06 09.24224 15 14 27.34 -24 48 07.3 20.7 V G96 – Mt. Lemmon Survey MPS 384665
2011 06 09.25045 15 14 26.91 -24 48 05.8 21.2 V G96 – Mt. Lemmon Survey MPS 384665
2012 10 15.45375 03 43 24.40 +24 21 35.7 21.2 V 691 – Steward Observatory, Kitt Peak-Spacewatch MPS 435072
2012 10 15.46651 03 43 23.90 +24 21 37.3 21.1 V 691 – Steward Observatory, Kitt Peak-Spacewatch MPS 435072
2012 10 15.47925 03 43 23.43 +24 21 37.6 21.1 V 691 – Steward Observatory, Kitt Peak-Spacewatch MPS 435072
2012 12 04.12404 02 53 46.96 +22 49 02.7   691 – Steward Observatory, Kitt Peak-Spacewatch MPS 444873
2012 12 04.19300 02 53 43.52 +22 48 49.3   691 – Steward Observatory, Kitt Peak-Spacewatch MPS 444873
2012 12 04.26204 02 53 40.04 +22 48 34.8   691 – Steward Observatory, Kitt Peak-Spacewatch MPS 444873
2012 12 13.09222 02 47 56.23 +22 19 46.7 21.2 V 691 – Steward Observatory, Kitt Peak-Spacewatch MPS 445987
2012 12 13.10813 02 47 55.75 +22 19 44.1 21.3 V 691 – Steward Observatory, Kitt Peak-Spacewatch MPS 445987
2012 12 13.14021 02 47 54.71 +22 19 38.9 21.4 V 691 – Steward Observatory, Kitt Peak-Spacewatch MPS 445987
2012 12 13.15611 02 47 54.22 +22 19 35.1 21.0 V 691 – Steward Observatory, Kitt Peak-Spacewatch MPS 445987
2012 12 13.18797 02 47 53.17 +22 19 30.7 21.0 V 691 – Steward Observatory, Kitt Peak-Spacewatch MPS 445987
2012 12 13.20387 02 47 52.66 +22 19 27.7 21.0 V 691 – Steward Observatory, Kitt Peak-Spacewatch MPS 445987
2014 02 26.51312 12 38 59.168 -03 15 18.94 21.7 w F51 – Pan-STARRS 1, Haleakala MPS 503931
2014 02 26.52550 12 38 58.703 -03 15 17.50 21.5 w F51 – Pan-STARRS 1, Haleakala MPS 503931
2014 02 26.53786 12 38 58.232 -03 15 15.84 21.5 w F51 – Pan-STARRS 1, Haleakala MPS 503931
2014 02 26.55022 12 38 57.764 -03 15 14.48 21.3 w F51 – Pan-STARRS 1, Haleakala MPS 503931
2014 03 06.45798 12 33 24.114 -02 54 16.95 21.2 w F51 – Pan-STARRS 1, Haleakala MPS 505335
2014 03 06.46989 12 33 23.504 -02 54 14.66 21.3 w F51 – Pan-STARRS 1, Haleakala MPS 505335
2014 04 02.17035 12 07 21.99 -01 03 22.9   691 – Steward Observatory, Kitt Peak-Spacewatch MPS 509706
2014 04 02.18803 12 07 20.88 -01 03 19.1   691 – Steward Observatory, Kitt Peak-Spacewatch MPS 509706
2014 04 02.20381 12 07 19.88 -01 03 14.4 21.0 V G96 – Mt. Lemmon Survey MPS 509706
2014 04 02.20571 12 07 19.80 -01 03 13.9   691 – Steward Observatory, Kitt Peak-Spacewatch MPS 509706
2014 04 02.20883 12 07 19.52 -01 03 13.8 21.6 V G96 – Mt. Lemmon Survey MPS 509706
2014 04 02.21385 12 07 19.29 -01 03 11.8 20.8 V G96 – Mt. Lemmon Survey MPS 509706
2014 04 02.21887 12 07 18.92 -01 03 10.6 20.8 V G96 – Mt. Lemmon Survey MPS 509706
2014 04 25.27962 11 48 53.37 +00 10 03.9 21.8 V G96 – Mt. Lemmon Survey MPS 512393
2014 04 25.28486 11 48 53.28 +00 10 04.2 20.9 V G96 – Mt. Lemmon Survey MPS 512393
2014 04 25.29007 11 48 53.04 +00 10 05.2 20.8 V G96 – Mt. Lemmon Survey MPS 512393
2014 04 25.29527 11 48 52.88 +00 10 05.7 21.4 V G96 – Mt. Lemmon Survey MPS 512393
2014 04 28.31166 11 47 26.224 +00 14 18.16 21.5 w F51 – Pan-STARRS 1, Haleakala MPS 513728
2014 04 28.32395 11 47 25.874 +00 14 19.15 21.5 w F51 – Pan-STARRS 1, Haleakala MPS 513728
2014 04 28.33623 11 47 25.554 +00 14 19.86 21.6 w F51 – Pan-STARRS 1, Haleakala MPS 513728
2014 04 28.34850 11 47 25.192 +00 14 20.96 21.7 w F51 – Pan-STARRS 1, Haleakala MPS 513728
2015 09 04.38645 23 26 17.42 -06 32 05.8   691 – Steward Observatory, Kitt Peak-Spacewatch MPS 626557
2015 09 04.40525 23 26 16.32 -06 32 09.8   691 – Steward Observatory, Kitt Peak-Spacewatch MPS 626557
2015 09 04.42405 23 26 15.12 -06 32 13.7   691 – Steward Observatory, Kitt Peak-Spacewatch MPS 626557
2015 09 06.65449 23 24 02.87 -06 40 01.6 20.0 R D29 – Purple Mountain Observatory, XuYi Station MPS 626557
2015 09 06.67213 23 24 01.72 -06 40 06.7 20.3 R D29 – Purple Mountain Observatory, XuYi Station MPS 626557
2015 09 09.41284 23 21 15.819 -06 49 39.05 20.0 w F51 – Pan-STARRS 1, Haleakala MPS 626557
2015 09 09.42499 23 21 15.043 -06 49 41.55 20.0 w F51 – Pan-STARRS 1, Haleakala MPS 626557
2015 09 09.43717 23 21 14.260 -06 49 44.15 20.0 w F51 – Pan-STARRS 1, Haleakala MPS 626557
2015 09 09.44937 23 21 13.479 -06 49 46.70 20.2 w F51 – Pan-STARRS 1, Haleakala MPS 626557
2015 09 09.66764 23 21 00.19 -06 50 33.7 20.2 R D29 – Purple Mountain Observatory, XuYi Station MPS 626557
2015 09 09.68263 23 20 59.26 -06 50 36.7 20.5 R D29 – Purple Mountain Observatory, XuYi Station MPS 626557
